Location: Chervonnoye
(48.6000°N, 34.4000°E)
Time: 03:51:57
(UTC+00:00)

RS-44 - Visible Passes

Search period start: 29 November 2021 00:00
Search period end: 09 December 2021 00:00
Orbit: 1174 x 1511 km, 82.5° (Epoch: 28 November)

Date Brightness Start Highest point End Pass type
(mag) Time Alt. Az. Time Alt. Az. Time Alt. Az.
29 Nov ? 03:29:19 10° N 03:36:04 36° ENE 03:43:10 10° SE visible
29 Nov?18:22:28N18:22:28N18:03:31SSWvisible
30 Nov ? 02:01:56 10° NNE 02:04:44 12° NE 02:07:34 10° ENE visible
30 Nov ? 03:52:52 10° N 04:00:08 54° ENE 04:07:50 10° SSE visible
30 Nov?18:45:59N18:45:59N18:28:15SSWvisible
01 Dec ? 02:24:19 10° NNE 02:29:19 19° ENE 02:34:29 10° E visible
01 Dec ? 04:16:32 10° N 04:24:02 79° E 04:32:02 10° SSE visible
01 Dec ? 17:00:14 10° S 17:16:54 - NNE 17:00:22 11° S visible
01 Dec?19:09:28N19:09:28N18:53:03SWvisible
02 Dec ? 02:47:27 10° N 02:53:41 28° ENE 03:00:13 10° ESE visible
02 Dec ? 17:23:44 10° S 17:40:22 - N 17:25:14 17° S visible
02 Dec?19:32:56N19:32:56N19:17:56WSWvisible
03 Dec ? 03:10:51 10° N 03:17:53 41° ENE 03:25:19 10° SE visible
03 Dec ? 15:56:07 10° SE 15:57:30 15° SE 15:57:30 15° SE visible
03 Dec ? 17:47:41 10° SSW 18:03:48 - N 17:50:11 23° SSW visible
03 Dec?19:56:22N19:56:22N19:42:54WSWvisible
04 Dec ? 01:42:58 10° NNE 01:46:41 14° NE 01:50:30 10° E visible
04 Dec ? 03:34:26 10° N 03:41:53 60° ENE 03:49:51 10° SSE visible
04 Dec ? 16:18:42 10° SSE 16:34:36 - NNE 16:22:33 30° SE visible
04 Dec ? 18:12:05 10° SW 18:27:10 - N 18:15:15 25° WSW visible
05 Dec ? 02:05:42 10° NNE 02:11:13 21° ENE 02:16:57 10° ESE visible
05 Dec ? 03:58:09 10° N 04:05:46 87° E 04:13:56 10° S visible
05 Dec ? 14:54:42 10° E 14:55:03 10° E 14:55:03 10° E visible
05 Dec ? 16:41:50 10° S 16:57:53 - NNE 16:47:46 57° SE visible
05 Dec ? 18:37:00 10° WSW 18:50:27 - N 18:40:29 23° W visible
06 Dec ? 02:28:56 10° N 02:35:33 31° ENE 02:42:30 10° SE visible
06 Dec ? 04:22:01 10° NNW 04:29:31 65° W 04:37:34 10° S visible
06 Dec ? 15:15:22 10° ESE 15:20:12 20° ENE 15:20:27 20° ENE visible
06 Dec ? 17:05:26 10° S 17:12:40 84° W 17:13:11 78° NNW visible
06 Dec ? 19:02:34 10° W 19:13:33 - N 19:05:56 18° WNW visible
07 Dec ? 01:02:49 10° NE 01:03:56 10° NE 01:05:04 10° NE visible
07 Dec ? 02:52:25 10° N 02:59:41 46° ENE 03:07:26 10° SE visible
07 Dec ? 15:37:26 10° SE 15:43:30 31° E 15:46:16 24° NE visible
07 Dec ? 17:29:29 10° SSW 17:36:33 56° WNW 17:39:04 39° NNW visible
07 Dec ? 19:29:14 10° WNW 19:36:13 - NNW 19:31:52 12° NW visible
08 Dec ? 01:24:09 10° NNE 01:28:39 16° NE 01:33:15 10° E visible
08 Dec ? 03:16:02 10° N 03:23:40 67° ENE 03:31:51 10° SSE visible
08 Dec ? 16:00:10 10° SSE 16:06:58 47° E 16:13:48 10° NNE visible
08 Dec ? 17:54:01 10° SW 18:00:34 37° WNW 18:07:15 10° N visible
